LOT2161 EPKK-LEMD

Flight info

Callsign LOT2161
Flight time 3h 11m
Altitude 38000
Route TUSIN DCT MIKOV DCT OBEDI DCT DETSA/M78F390 DCT NESTI DCT VOG DCT GEKBA DCT VAMTU DCT KOLON DCT GANGU DCT PADKO DCT DIVKO DCT NILDU DCT NENDA N975 ADUXO
Aircraft B738/M-SDE2E3FGHIRWXY/LB1

Departure

Time 2026-05-07 10:02
Airport Kraków John Paul II International Airport (EPKK)

Arrival

Time 2026-05-07 13:14
Airport Adolfo Suárez Madrid–Barajas Airport (LEMD)
Time Latitude Longitude Altitude Speed Heading
2026-05-07 09:45 50.07308 19.80003 799 ft 0 kts 167°
2026-05-07 09:54 50.07313 19.80002 799 ft 2 kts 168°
2026-05-07 09:54 50.07332 19.79995 799 ft 3 kts 169°
2026-05-07 09:54 50.07352 19.79989 799 ft 3 kts 168°
2026-05-07 09:55 50.07372 19.79982 799 ft 3 kts 165°
2026-05-07 09:55 50.07382 19.79978 799 ft 3 kts 165°
2026-05-07 09:55 50.07402 19.79970 799 ft 3 kts 164°
2026-05-07 09:55 50.07417 19.79963 799 ft 0 kts 163°
2026-05-07 09:57 50.07402 19.79991 799 ft 8 kts 117°
2026-05-07 09:57 50.07408 19.80110 799 ft 12 kts 77°
2026-05-07 09:58 50.07425 19.80229 799 ft 11 kts 77°
2026-05-07 09:58 50.07443 19.80343 799 ft 11 kts 62°
2026-05-07 09:58 50.07505 19.80395 799 ft 10 kts 17°
2026-05-07 09:58 50.07572 19.80423 799 ft 10 kts
2026-05-07 09:59 50.07637 19.80404 799 ft 9 kts 347°
2026-05-07 09:59 50.07698 19.80383 799 ft 9 kts 347°
2026-05-07 09:59 50.07760 19.80362 799 ft 9 kts 347°
2026-05-07 09:59 50.07818 19.80342 799 ft 8 kts 347°
2026-05-07 10:00 50.07873 19.80324 799 ft 8 kts 347°
2026-05-07 10:00 50.07925 19.80306 799 ft 8 kts 347°
2026-05-07 10:00 50.07975 19.80289 799 ft 7 kts 348°
2026-05-07 10:00 50.08001 19.80279 799 ft 3 kts 339°
2026-05-07 10:01 50.08016 19.80255 799 ft 3 kts 283°
2026-05-07 10:01 50.08013 19.80231 799 ft 3 kts 258°
2026-05-07 10:01 50.07995 19.80097 799 ft 37 kts 258°
2026-05-07 10:01 50.07891 19.79352 799 ft 103 kts 258°
2026-05-07 10:02 50.07697 19.77960 818 ft 157 kts 258°
2026-05-07 10:02 50.07456 19.76227 1430 ft 163 kts 258°
2026-05-07 10:02 50.07216 19.74521 2285 ft 163 kts 258°
2026-05-07 10:02 50.06970 19.72762 2970 ft 172 kts 258°
2026-05-07 10:03 50.06704 19.70852 3353 ft 195 kts 258°
2026-05-07 10:03 50.06393 19.68627 3663 ft 222 kts 258°
2026-05-07 10:03 50.06049 19.66172 4245 ft 238 kts 257°
2026-05-07 10:03 50.05696 19.63642 5000 ft 246 kts 257°
2026-05-07 10:04 50.05333 19.61000 5828 ft 252 kts 257°
2026-05-07 10:04 50.04957 19.58315 6695 ft 256 kts 256°
2026-05-07 10:04 50.04570 19.55590 7526 ft 260 kts 256°
2026-05-07 10:04 50.04175 19.52822 8362 ft 263 kts 256°
2026-05-07 10:05 50.03772 19.50013 9151 ft 269 kts 256°
2026-05-07 10:05 50.03364 19.47160 9965 ft 272 kts 256°
2026-05-07 10:05 50.02952 19.44252 10629 ft 282 kts 257°
2026-05-07 10:05 50.02744 19.41124 11128 ft 298 kts 267°
2026-05-07 10:06 50.02867 19.37872 11832 ft 305 kts 273°
2026-05-07 10:06 50.03166 19.34574 12602 ft 309 kts 276°
2026-05-07 10:06 50.03523 19.31265 13378 ft 312 kts 276°
2026-05-07 10:06 50.03878 19.27916 14140 ft 315 kts 276°
2026-05-07 10:07 50.04265 19.24534 14653 ft 319 kts 276°
2026-05-07 10:07 50.04635 19.21120 14884 ft 320 kts 275°
2026-05-07 10:07 50.04988 19.17702 14913 ft 320 kts 275°
2026-05-07 10:07 50.05328 19.14292 14914 ft 319 kts 275°
2026-05-07 10:08 50.05663 19.10878 14915 ft 319 kts 275°
2026-05-07 10:08 50.05882 19.08622 14914 ft 319 kts 275°
2026-05-07 10:08 50.06212 19.05204 14917 ft 319 kts 275°
2026-05-07 10:08 50.06644 19.00694 14920 ft 319 kts 275°
2026-05-07 10:09 50.06970 18.97273 14920 ft 320 kts 275°
2026-05-07 10:09 50.07297 18.93857 14917 ft 319 kts 275°
2026-05-07 10:09 50.07622 18.90434 14915 ft 319 kts 275°
2026-05-07 10:09 50.07946 18.87022 14912 ft 319 kts 275°
2026-05-07 10:10 50.08163 18.84752 14912 ft 319 kts 275°
2026-05-07 10:10 50.08344 18.81292 14902 ft 315 kts 262°
2026-05-07 10:10 50.07799 18.78075 14915 ft 311 kts 242°
2026-05-07 10:10 50.06439 18.75395 15353 ft 315 kts 220°
2026-05-07 10:11 50.04567 18.73708 15733 ft 318 kts 201°
2026-05-07 10:11 50.02456 18.72636 15900 ft 318 kts 202°
2026-05-07 10:11 50.00457 18.71207 15919 ft 315 kts 210°
2026-05-07 10:11 49.98648 18.69317 15926 ft 313 kts 216°
2026-05-07 10:12 49.96813 18.67512 15925 ft 313 kts 210°
2026-05-07 10:12 49.94893 18.65912 15926 ft 313 kts 209°
2026-05-07 10:12 49.92971 18.64329 15927 ft 313 kts 209°
2026-05-07 10:12 49.91043 18.62718 16033 ft 317 kts 210°
2026-05-07 10:13 49.89111 18.61042 16750 ft 318 kts 210°
2026-05-07 10:13 49.87180 18.59378 17521 ft 318 kts 210°
2026-05-07 10:13 49.85334 18.57473 18184 ft 320 kts 219°
2026-05-07 10:13 49.83705 18.55106 18846 ft 322 kts 227°
2026-05-07 10:14 49.82219 18.52498 19495 ft 325 kts 229°
2026-05-07 10:14 49.80772 18.49780 20120 ft 328 kts 230°
2026-05-07 10:14 49.79328 18.47041 20745 ft 329 kts 230°
2026-05-07 10:14 49.77874 18.44291 21372 ft 331 kts 229°
2026-05-07 10:15 49.76410 18.41526 21963 ft 333 kts 229°
2026-05-07 10:15 49.74936 18.38748 22549 ft 335 kts 229°
2026-05-07 10:15 49.73452 18.35956 23116 ft 337 kts 229°
2026-05-07 10:15 49.71959 18.33149 23664 ft 339 kts 229°
2026-05-07 10:16 49.70456 18.30329 24207 ft 341 kts 229°
2026-05-07 10:16 49.68943 18.27493 24709 ft 343 kts 229°
2026-05-07 10:16 49.67420 18.24642 25187 ft 346 kts 229°
2026-05-07 10:16 49.65880 18.21764 25674 ft 348 kts 228°
2026-05-07 10:17 49.64329 18.18867 26118 ft 351 kts 228°
2026-05-07 10:17 49.62774 18.15956 26584 ft 353 kts 229°
2026-05-07 10:17 49.61230 18.13001 27029 ft 355 kts 228°
2026-05-07 10:17 49.59670 18.10033 27442 ft 358 kts 228°
2026-05-07 10:18 49.58096 18.07056 27870 ft 359 kts 228°
2026-05-07 10:18 49.56508 18.04064 28274 ft 361 kts 227°
2026-05-07 10:18 49.54907 18.01061 28644 ft 364 kts 227°
2026-05-07 10:18 49.53292 17.98038 29020 ft 366 kts 227°
2026-05-07 10:19 49.51670 17.95008 29422 ft 367 kts 227°
2026-05-07 10:19 49.50038 17.91968 29766 ft 370 kts 227°
2026-05-07 10:19 49.48393 17.88909 30095 ft 372 kts 227°
2026-05-07 10:19 49.46738 17.85834 30437 ft 374 kts 227°
2026-05-07 10:20 49.45073 17.82747 30772 ft 376 kts 227°
2026-05-07 10:20 49.43401 17.79648 31091 ft 378 kts 227°
2026-05-07 10:20 49.41720 17.76538 31438 ft 378 kts 227°
2026-05-07 10:20 49.40036 17.73427 31762 ft 380 kts 227°
2026-05-07 10:21 49.38342 17.70300 32042 ft 382 kts 227°
2026-05-07 10:21 49.36638 17.67160 32339 ft 383 kts 227°
2026-05-07 10:21 49.34950 17.64050 32636 ft 384 kts 227°
2026-05-07 10:21 49.33236 17.60899 32903 ft 386 kts 227°
2026-05-07 10:22 49.31513 17.57733 33160 ft 388 kts 227°
2026-05-07 10:22 49.29778 17.54551 33421 ft 389 kts 227°
2026-05-07 10:22 49.28039 17.51364 33699 ft 390 kts 227°
2026-05-07 10:22 49.26294 17.48171 33912 ft 392 kts 227°
2026-05-07 10:23 49.24540 17.44965 34140 ft 393 kts 227°
2026-05-07 10:23 49.22780 17.41751 34394 ft 394 kts 227°
2026-05-07 10:23 49.21019 17.38539 34663 ft 395 kts 227°
2026-05-07 10:23 49.19251 17.35318 34907 ft 396 kts 227°
2026-05-07 10:24 49.17479 17.32096 35165 ft 396 kts 228°
2026-05-07 10:24 49.15703 17.28869 35405 ft 396 kts 228°
2026-05-07 10:24 49.13929 17.25648 35683 ft 396 kts 228°
2026-05-07 10:24 49.12153 17.22429 35898 ft 397 kts 228°
2026-05-07 10:25 49.10369 17.19199 36111 ft 398 kts 228°
2026-05-07 10:25 49.08581 17.15966 36331 ft 399 kts 228°
2026-05-07 10:25 49.06787 17.12727 36535 ft 400 kts 228°
2026-05-07 10:25 49.04991 17.09486 36755 ft 401 kts 228°
2026-05-07 10:26 49.03191 17.06244 36967 ft 401 kts 228°
2026-05-07 10:26 49.01385 17.02993 37180 ft 402 kts 228°
2026-05-07 10:26 48.99577 16.99742 37376 ft 402 kts 229°
2026-05-07 10:26 48.97785 16.96466 37571 ft 403 kts 229°
2026-05-07 10:27 48.95986 16.93208 37788 ft 403 kts 229°
2026-05-07 10:27 48.94191 16.89988 37948 ft 404 kts 228°
2026-05-07 10:27 48.92360 16.86720 37957 ft 406 kts 228°
2026-05-07 10:28 48.88685 16.80187 37966 ft 405 kts 228°
2026-05-07 10:28 48.85024 16.73695 37968 ft 406 kts 228°
2026-05-07 10:29 48.82128 16.68568 37967 ft 406 kts 228°
2026-05-07 10:29 48.78609 16.62184 37971 ft 409 kts 232°
2026-05-07 10:30 48.73946 16.51337 37969 ft 409 kts 236°
2026-05-07 10:30 48.70888 16.44056 37971 ft 410 kts 236°
2026-05-07 10:31 48.67803 16.36755 37974 ft 412 kts 236°
2026-05-07 10:31 48.64720 16.29485 37973 ft 410 kts 235°
2026-05-07 10:32 48.61635 16.22236 37974 ft 410 kts 235°
2026-05-07 10:32 48.58564 16.14938 37975 ft 410 kts 236°
2026-05-07 10:33 48.55527 16.07660 37976 ft 408 kts 236°
2026-05-07 10:33 48.52478 16.00433 37977 ft 409 kts 235°
2026-05-07 10:34 48.49428 15.93260 37978 ft 411 kts 235°
2026-05-07 10:34 48.46319 15.85978 37978 ft 411 kts 235°
2026-05-07 10:35 48.43211 15.78724 37976 ft 412 kts 235°
2026-05-07 10:35 48.40123 15.71540 37977 ft 411 kts 235°
2026-05-07 10:36 48.37014 15.64330 37980 ft 410 kts 235°
2026-05-07 10:36 48.33901 15.57129 37979 ft 411 kts 235°
2026-05-07 10:37 48.30778 15.49925 37978 ft 412 kts 235°
2026-05-07 10:37 48.27646 15.42713 37982 ft 412 kts 235°
2026-05-07 10:38 48.24530 15.35564 37985 ft 411 kts 235°
2026-05-07 10:38 48.21403 15.28404 37980 ft 410 kts 235°
2026-05-07 10:39 48.18252 15.21207 37977 ft 413 kts 234°
2026-05-07 10:39 48.15101 15.14032 37977 ft 411 kts 234°
2026-05-07 10:40 48.11960 15.06896 37981 ft 411 kts 234°
2026-05-07 10:40 48.08797 14.99733 37983 ft 413 kts 234°
2026-05-07 10:41 48.05630 14.92581 37980 ft 412 kts 234°
2026-05-07 10:41 48.02476 14.85478 37982 ft 414 kts 234°
2026-05-07 10:42 47.99278 14.78290 37985 ft 412 kts 234°
2026-05-07 10:42 47.96134 14.71243 37984 ft 409 kts 234°
2026-05-07 10:43 47.92965 14.64149 37986 ft 413 kts 234°
2026-05-07 10:43 47.89776 14.57041 37984 ft 411 kts 234°
2026-05-07 10:44 47.86589 14.49958 37985 ft 412 kts 234°
2026-05-07 10:44 47.83397 14.42875 37984 ft 412 kts 234°
2026-05-07 10:45 47.80194 14.35787 37981 ft 412 kts 234°
2026-05-07 10:45 47.76992 14.28721 37983 ft 413 kts 234°
2026-05-07 10:46 47.73777 14.21652 37983 ft 411 kts 234°
2026-05-07 10:46 47.70577 14.14620 37985 ft 412 kts 234°
2026-05-07 10:47 47.67356 14.07566 37991 ft 413 kts 234°
2026-05-07 10:47 47.64130 14.00519 37993 ft 412 kts 234°
2026-05-07 10:48 47.60906 13.93491 37993 ft 413 kts 234°
2026-05-07 10:48 47.57667 13.86456 37995 ft 412 kts 234°
2026-05-07 10:49 47.54444 13.79468 37997 ft 410 kts 234°
2026-05-07 10:49 47.51211 13.72476 38001 ft 413 kts 234°
2026-05-07 10:50 47.48002 13.65453 38005 ft 411 kts 234°
2026-05-07 10:50 47.44760 13.58482 38007 ft 412 kts 234°
2026-05-07 10:51 47.41500 13.51518 38008 ft 411 kts 234°
2026-05-07 10:51 47.38243 13.44580 38009 ft 411 kts 234°
2026-05-07 10:52 47.35539 13.38825 38010 ft 411 kts 234°
2026-05-07 10:52 47.32280 13.31895 38010 ft 411 kts 233°
2026-05-07 10:53 47.28919 13.25092 38010 ft 411 kts 232°
2026-05-07 10:53 47.25536 13.18304 38010 ft 411 kts 232°
2026-05-07 10:54 47.22151 13.11512 38010 ft 412 kts 232°
2026-05-07 10:54 47.18760 13.04717 38162 ft 413 kts 232°
2026-05-07 10:55 47.17055 13.01304 38371 ft 413 kts 233°
2026-05-07 10:55 47.15354 12.97901 38589 ft 413 kts 233°
2026-05-07 10:55 47.13684 12.94565 38755 ft 414 kts 233°
2026-05-07 10:55 47.11953 12.91086 38938 ft 414 kts 233°
2026-05-07 10:56 47.08567 12.84206 39005 ft 417 kts 233°
2026-05-07 10:56 47.05145 12.77340 39012 ft 416 kts 233°
2026-05-07 10:57 47.01741 12.70548 39013 ft 416 kts 233°
2026-05-07 10:57 46.98355 12.63766 39014 ft 416 kts 233°
2026-05-07 10:58 46.94931 12.56931 39016 ft 416 kts 233°
2026-05-07 10:58 46.91481 12.50127 39019 ft 416 kts 233°
2026-05-07 10:59 46.88022 12.43335 39019 ft 416 kts 233°
2026-05-07 10:59 46.84563 12.36558 39021 ft 416 kts 233°
2026-05-07 11:00 46.81102 12.29782 39022 ft 416 kts 233°
2026-05-07 11:00 46.77609 12.23038 39022 ft 416 kts 232°
2026-05-07 11:01 46.74090 12.16350 39024 ft 416 kts 232°
2026-05-07 11:01 46.70563 12.09661 39023 ft 416 kts 232°
2026-05-07 11:02 46.67033 12.02982 39023 ft 416 kts 232°
2026-05-07 11:02 46.63499 11.96308 39024 ft 417 kts 232°
2026-05-07 11:03 46.59976 11.89671 39027 ft 417 kts 232°
2026-05-07 11:03 46.56472 11.82959 39030 ft 416 kts 233°
2026-05-07 11:04 46.52959 11.76271 39035 ft 416 kts 232°
2026-05-07 11:04 46.49433 11.69611 39022 ft 416 kts 232°
2026-05-07 11:05 46.45896 11.62959 39016 ft 416 kts 232°
2026-05-07 11:05 46.42355 11.56321 39012 ft 417 kts 232°
2026-05-07 11:06 46.38793 11.49663 39003 ft 417 kts 232°
2026-05-07 11:06 46.35239 11.43036 38996 ft 417 kts 232°
2026-05-07 11:07 46.31673 11.36404 38996 ft 417 kts 232°
2026-05-07 11:07 46.28104 11.29780 39003 ft 417 kts 232°
2026-05-07 11:08 46.24536 11.23175 39010 ft 417 kts 232°
2026-05-07 11:08 46.20960 11.16570 39025 ft 417 kts 232°
2026-05-07 11:09 46.17395 11.10001 39040 ft 418 kts 232°
2026-05-07 11:09 46.13800 11.03393 39050 ft 418 kts 232°
2026-05-07 11:10 46.10203 10.96797 39052 ft 418 kts 232°
2026-05-07 11:10 46.06606 10.90214 39050 ft 418 kts 232°
2026-05-07 11:11 46.03004 10.83639 39045 ft 418 kts 232°
2026-05-07 11:11 45.99433 10.77092 39041 ft 418 kts 232°
2026-05-07 11:12 45.95855 10.70544 39033 ft 415 kts 232°
2026-05-07 11:12 45.92266 10.64051 39026 ft 416 kts 232°
2026-05-07 11:13 45.88657 10.57551 39021 ft 417 kts 232°
2026-05-07 11:13 45.85047 10.51062 39017 ft 416 kts 232°
2026-05-07 11:14 45.81435 10.44576 39013 ft 417 kts 232°
2026-05-07 11:14 45.77801 10.38095 39009 ft 417 kts 232°
2026-05-07 11:15 45.74145 10.31635 39004 ft 418 kts 232°
2026-05-07 11:15 45.70483 10.25182 38992 ft 417 kts 232°
2026-05-07 11:16 45.66823 10.18745 38984 ft 418 kts 232°
2026-05-07 11:16 45.63191 10.12373 38980 ft 417 kts 232°
2026-05-07 11:17 45.59538 10.05978 38979 ft 418 kts 232°
2026-05-07 11:17 45.55881 9.99480 38982 ft 417 kts 232°
2026-05-07 11:18 45.52254 9.93073 38984 ft 418 kts 232°
2026-05-07 11:18 45.48595 9.86655 38985 ft 416 kts 232°
2026-05-07 11:19 45.44934 9.80262 38986 ft 417 kts 232°
2026-05-07 11:19 45.41259 9.73863 38987 ft 417 kts 232°
2026-05-07 11:20 45.37591 9.67492 38987 ft 415 kts 232°
2026-05-07 11:20 45.33923 9.61138 38994 ft 416 kts 232°
2026-05-07 11:21 45.30257 9.54800 38995 ft 415 kts 232°
2026-05-07 11:21 45.26587 9.48469 38995 ft 415 kts 232°
2026-05-07 11:22 45.22919 9.42156 38995 ft 414 kts 232°
2026-05-07 11:22 45.19250 9.35855 38995 ft 414 kts 232°
2026-05-07 11:23 45.15598 9.29548 38996 ft 414 kts 232°
2026-05-07 11:23 45.11937 9.23256 39001 ft 414 kts 232°
2026-05-07 11:24 45.08263 9.17005 39005 ft 413 kts 232°
2026-05-07 11:24 45.04579 9.10758 39007 ft 413 kts 232°
2026-05-07 11:25 45.00897 9.04527 39008 ft 413 kts 232°
2026-05-07 11:25 44.97214 8.98300 39010 ft 413 kts 232°
2026-05-07 11:26 44.93585 8.92014 39014 ft 413 kts 232°
2026-05-07 11:26 44.89973 8.85726 39016 ft 412 kts 232°
2026-05-07 11:27 44.86385 8.79499 39014 ft 412 kts 232°
2026-05-07 11:27 44.82766 8.73235 39015 ft 412 kts 232°
2026-05-07 11:28 44.79144 8.66979 39019 ft 412 kts 232°
2026-05-07 11:28 44.75518 8.60729 39019 ft 411 kts 232°
2026-05-07 11:29 44.71934 8.54461 39019 ft 411 kts 233°
2026-05-07 11:29 44.68337 8.48214 39019 ft 411 kts 233°
2026-05-07 11:30 44.64723 8.41978 39016 ft 411 kts 233°
2026-05-07 11:30 44.61112 8.35772 39012 ft 410 kts 233°
2026-05-07 11:31 44.57496 8.29575 39010 ft 411 kts 233°
2026-05-07 11:31 44.53879 8.23390 39008 ft 409 kts 233°
2026-05-07 11:32 44.48454 8.14140 39015 ft 410 kts 233°
2026-05-07 11:33 44.44855 8.07952 39011 ft 409 kts 233°
2026-05-07 11:33 44.41243 8.01814 39012 ft 409 kts 233°
2026-05-07 11:34 44.37615 7.95692 39012 ft 409 kts 233°
2026-05-07 11:34 44.33976 7.89567 39012 ft 409 kts 233°
2026-05-07 11:35 44.30363 7.83494 39011 ft 409 kts 233°
2026-05-07 11:35 44.26621 7.77496 39013 ft 411 kts 227°
2026-05-07 11:36 44.22381 7.72125 39010 ft 412 kts 224°
2026-05-07 11:36 44.18074 7.66849 39006 ft 412 kts 225°
2026-05-07 11:37 44.13869 7.61452 39006 ft 410 kts 229°
2026-05-07 11:37 44.10089 7.55522 39004 ft 409 kts 232°
2026-05-07 11:38 44.06377 7.49518 39003 ft 410 kts 231°
2026-05-07 11:38 44.02630 7.43530 39003 ft 410 kts 231°
2026-05-07 11:39 43.99510 7.38568 39008 ft 410 kts 231°
2026-05-07 11:39 43.95768 7.32631 39006 ft 406 kts 231°
2026-05-07 11:40 43.92082 7.26724 39000 ft 405 kts 232°
2026-05-07 11:40 43.88397 7.20802 38998 ft 406 kts 231°
2026-05-07 11:41 43.84677 7.14923 38996 ft 405 kts 231°
2026-05-07 11:41 43.80952 7.09068 38995 ft 405 kts 231°
2026-05-07 11:42 43.77225 7.03220 38995 ft 405 kts 231°
2026-05-07 11:42 43.73619 6.97253 38994 ft 402 kts 238°
2026-05-07 11:43 43.70939 6.90494 38992 ft 401 kts 246°
2026-05-07 11:43 43.68721 6.83406 38992 ft 402 kts 248°
2026-05-07 11:44 43.66574 6.76281 38990 ft 402 kts 248°
2026-05-07 11:44 43.64441 6.69154 38988 ft 402 kts 248°
2026-05-07 11:45 43.62322 6.62063 38985 ft 402 kts 248°
2026-05-07 11:45 43.60189 6.54927 38982 ft 402 kts 248°
2026-05-07 11:46 43.58096 6.47763 38977 ft 403 kts 249°
2026-05-07 11:46 43.56007 6.40597 38973 ft 403 kts 248°
2026-05-07 11:47 43.53869 6.33468 38970 ft 403 kts 248°
2026-05-07 11:47 43.51714 6.26340 38970 ft 403 kts 248°
2026-05-07 11:48 43.49554 6.19218 38971 ft 403 kts 248°
2026-05-07 11:48 43.47394 6.12102 38970 ft 403 kts 248°
2026-05-07 11:49 43.45234 6.04991 38970 ft 403 kts 248°
2026-05-07 11:49 43.43060 5.97882 38977 ft 403 kts 248°
2026-05-07 11:50 43.40881 5.90779 38990 ft 404 kts 248°
2026-05-07 11:50 43.38693 5.83663 38994 ft 403 kts 248°
2026-05-07 11:51 43.36507 5.76565 38993 ft 403 kts 248°
2026-05-07 11:51 43.34375 5.69445 38987 ft 402 kts 248°
2026-05-07 11:52 43.32219 5.62361 38988 ft 402 kts 248°
2026-05-07 11:52 43.30044 5.55347 38989 ft 402 kts 247°
2026-05-07 11:53 43.27847 5.48297 38990 ft 402 kts 247°
2026-05-07 11:53 43.25645 5.41246 38991 ft 401 kts 247°
2026-05-07 11:54 43.23453 5.34230 38992 ft 401 kts 247°
2026-05-07 11:54 43.21252 5.27211 38991 ft 400 kts 247°
2026-05-07 11:55 43.19043 5.20193 38990 ft 400 kts 247°
2026-05-07 11:55 43.16877 5.13162 38989 ft 400 kts 247°
2026-05-07 11:56 43.14694 5.06196 38994 ft 400 kts 246°
2026-05-07 11:56 43.12478 4.99209 38994 ft 400 kts 246°
2026-05-07 11:57 43.10251 4.92219 38994 ft 400 kts 246°
2026-05-07 11:57 43.08026 4.85243 38992 ft 400 kts 246°
2026-05-07 11:58 43.05383 4.78562 38995 ft 401 kts 234°
2026-05-07 11:58 43.01585 4.73004 38992 ft 403 kts 225°
2026-05-07 11:59 42.97426 4.67860 38994 ft 404 kts 224°
2026-05-07 11:59 42.93226 4.62777 38993 ft 403 kts 224°
2026-05-07 12:00 42.89029 4.57726 38994 ft 402 kts 224°
2026-05-07 12:00 42.84819 4.52677 38993 ft 402 kts 224°
2026-05-07 12:01 42.80618 4.47651 38994 ft 402 kts 224°
2026-05-07 12:01 42.76442 4.42598 38994 ft 401 kts 224°
2026-05-07 12:02 42.72263 4.37572 38994 ft 400 kts 224°
2026-05-07 12:02 42.68080 4.32567 38993 ft 401 kts 224°
2026-05-07 12:03 42.63892 4.27574 38993 ft 400 kts 224°
2026-05-07 12:03 42.59710 4.22598 38993 ft 399 kts 224°
2026-05-07 12:04 42.55548 4.17656 38993 ft 399 kts 223°
2026-05-07 12:04 42.51365 4.12699 38994 ft 399 kts 223°
2026-05-07 12:05 42.47209 4.07737 38994 ft 398 kts 224°
2026-05-07 12:05 42.43038 4.02807 38996 ft 398 kts 223°
2026-05-07 12:06 42.38859 3.97895 38994 ft 398 kts 223°
2026-05-07 12:06 42.34675 3.92988 38993 ft 398 kts 223°
2026-05-07 12:07 42.30490 3.88085 38994 ft 398 kts 223°
2026-05-07 12:07 42.26447 3.83013 38993 ft 396 kts 230°
2026-05-07 12:08 42.23061 3.77161 38994 ft 396 kts 235°
2026-05-07 12:08 42.19866 3.71165 38994 ft 396 kts 235°
2026-05-07 12:09 42.16660 3.65135 38994 ft 396 kts 235°
2026-05-07 12:09 42.13449 3.59098 38994 ft 397 kts 235°
2026-05-07 12:10 42.10233 3.53057 38994 ft 397 kts 235°
2026-05-07 12:10 42.07010 3.47014 38994 ft 397 kts 235°
2026-05-07 12:11 42.03812 3.40938 38994 ft 398 kts 235°
2026-05-07 12:11 42.00605 3.34873 38994 ft 398 kts 235°
2026-05-07 12:12 41.97384 3.28825 38994 ft 396 kts 235°
2026-05-07 12:12 41.94184 3.22836 38994 ft 394 kts 235°
2026-05-07 12:13 41.90999 3.16894 38994 ft 395 kts 234°
2026-05-07 12:13 41.87778 3.10896 38994 ft 396 kts 235°
2026-05-07 12:14 41.84582 3.04885 38994 ft 395 kts 235°
2026-05-07 12:14 41.81359 2.98904 38994 ft 396 kts 234°
2026-05-07 12:15 41.78118 2.92925 38994 ft 396 kts 234°
2026-05-07 12:15 41.74867 2.86941 38994 ft 400 kts 234°
2026-05-07 12:16 41.71571 2.80885 38994 ft 403 kts 233°
2026-05-07 12:16 41.68270 2.74819 38994 ft 403 kts 233°
2026-05-07 12:17 41.64843 2.68878 38994 ft 403 kts 231°
2026-05-07 12:17 41.61370 2.62980 38993 ft 404 kts 231°
2026-05-07 12:18 41.57903 2.57072 38993 ft 404 kts 231°
2026-05-07 12:18 41.54432 2.51155 38993 ft 405 kts 231°
2026-05-07 12:19 41.50956 2.45231 38994 ft 405 kts 232°
2026-05-07 12:19 41.47529 2.39268 39001 ft 405 kts 232°
2026-05-07 12:20 41.44062 2.33344 39002 ft 405 kts 231°
2026-05-07 12:20 41.40580 2.27440 39004 ft 405 kts 231°
2026-05-07 12:21 41.37091 2.21544 39008 ft 405 kts 231°
2026-05-07 12:21 41.33600 2.15652 39014 ft 405 kts 232°
2026-05-07 12:22 41.30976 2.09033 39020 ft 409 kts 251°
2026-05-07 12:22 41.29732 2.01643 39022 ft 411 kts 257°
2026-05-07 12:23 41.28835 1.94115 39020 ft 414 kts 258°
2026-05-07 12:23 41.27941 1.86525 39017 ft 415 kts 258°
2026-05-07 12:24 41.27049 1.78960 39014 ft 414 kts 258°
2026-05-07 12:24 41.26157 1.71403 39015 ft 414 kts 258°
2026-05-07 12:25 41.25414 1.65112 39012 ft 415 kts 258°
2026-05-07 12:25 41.24527 1.57541 39007 ft 415 kts 258°
2026-05-07 12:26 41.23663 1.49970 39003 ft 415 kts 258°
2026-05-07 12:26 41.22756 1.42401 38999 ft 415 kts 257°
2026-05-07 12:27 41.21837 1.34842 38997 ft 415 kts 257°
2026-05-07 12:27 41.20906 1.27226 38995 ft 415 kts 257°
2026-05-07 12:28 41.19986 1.19702 38994 ft 415 kts 257°
2026-05-07 12:28 41.19056 1.12129 38994 ft 416 kts 257°
2026-05-07 12:29 41.18151 1.04547 38994 ft 416 kts 257°
2026-05-07 12:29 41.17226 0.96971 38993 ft 416 kts 257°
2026-05-07 12:30 41.16274 0.89388 38995 ft 417 kts 257°
2026-05-07 12:30 41.15312 0.81799 38996 ft 417 kts 257°
2026-05-07 12:31 41.14348 0.74214 38996 ft 417 kts 257°
2026-05-07 12:31 41.13389 0.66669 38997 ft 417 kts 257°
2026-05-07 12:32 41.12435 0.59069 38992 ft 418 kts 257°
2026-05-07 12:32 41.11464 0.51476 38992 ft 418 kts 257°
2026-05-07 12:33 41.09992 0.40091 38991 ft 418 kts 257°
2026-05-07 12:33 41.08997 0.32504 38991 ft 418 kts 257°
2026-05-07 12:34 41.07996 0.24909 38991 ft 418 kts 256°
2026-05-07 12:34 41.06991 0.17319 38991 ft 418 kts 256°
2026-05-07 12:35 41.06061 0.09970 38990 ft 418 kts 257°
2026-05-07 12:35 41.05091 0.02368 38990 ft 418 kts 257°
2026-05-07 12:36 41.04083 -0.05178 38990 ft 421 kts 256°
2026-05-07 12:36 41.03034 -0.12932 38992 ft 428 kts 256°
2026-05-07 12:37 41.01981 -0.20689 38986 ft 428 kts 256°
2026-05-07 12:37 41.00821 -0.28391 38981 ft 424 kts 251°
2026-05-07 12:38 40.98963 -0.35779 38982 ft 423 kts 248°
2026-05-07 12:38 40.97014 -0.43063 38983 ft 423 kts 248°
2026-05-07 12:39 40.95038 -0.50395 38985 ft 423 kts 248°
2026-05-07 12:39 40.93040 -0.57705 38987 ft 423 kts 247°
2026-05-07 12:40 40.91031 -0.65022 38987 ft 423 kts 247°
2026-05-07 12:40 40.89023 -0.72326 38988 ft 423 kts 247°
2026-05-07 12:41 40.87018 -0.79617 38990 ft 422 kts 247°
2026-05-07 12:41 40.85007 -0.86901 38994 ft 422 kts 248°
2026-05-07 12:42 40.83023 -0.94201 38994 ft 422 kts 247°
2026-05-07 12:42 40.81000 -1.01477 38994 ft 422 kts 247°
2026-05-07 12:43 40.78966 -1.08746 38971 ft 422 kts 247°
2026-05-07 12:43 40.77942 -1.12393 38632 ft 423 kts 247°
2026-05-07 12:43 40.76928 -1.16007 38184 ft 418 kts 246°
2026-05-07 12:44 40.75914 -1.19617 37528 ft 419 kts 246°
2026-05-07 12:44 40.74903 -1.23216 36883 ft 420 kts 246°
2026-05-07 12:44 40.73888 -1.26831 36231 ft 420 kts 246°
2026-05-07 12:44 40.72875 -1.30432 35562 ft 420 kts 245°
2026-05-07 12:45 40.71856 -1.34042 34877 ft 420 kts 245°
2026-05-07 12:45 40.70837 -1.37645 34184 ft 419 kts 245°
2026-05-07 12:45 40.69818 -1.41240 33482 ft 419 kts 244°
2026-05-07 12:45 40.68797 -1.44837 32769 ft 418 kts 244°
2026-05-07 12:46 40.67793 -1.48368 32194 ft 415 kts 245°
2026-05-07 12:46 40.66774 -1.51955 31664 ft 410 kts 244°
2026-05-07 12:46 40.65777 -1.55453 31149 ft 406 kts 244°
2026-05-07 12:46 40.64802 -1.58875 30647 ft 402 kts 244°
2026-05-07 12:47 40.63826 -1.62293 30147 ft 397 kts 244°
2026-05-07 12:47 40.62859 -1.65681 29655 ft 394 kts 244°
2026-05-07 12:47 40.61929 -1.69056 29177 ft 391 kts 246°
2026-05-07 12:47 40.61009 -1.72412 28695 ft 387 kts 245°
2026-05-07 12:48 40.60083 -1.75713 28217 ft 383 kts 245°
2026-05-07 12:48 40.59153 -1.78985 27741 ft 380 kts 245°
2026-05-07 12:48 40.58221 -1.82234 27266 ft 377 kts 245°
2026-05-07 12:48 40.57296 -1.85449 26792 ft 375 kts 245°
2026-05-07 12:49 40.56376 -1.88639 26320 ft 372 kts 246°
2026-05-07 12:49 40.55458 -1.91817 25848 ft 370 kts 246°
2026-05-07 12:49 40.54549 -1.94963 25380 ft 367 kts 246°
2026-05-07 12:49 40.53642 -1.98098 24912 ft 365 kts 246°
2026-05-07 12:50 40.52743 -2.01204 24448 ft 363 kts 246°
2026-05-07 12:50 40.51848 -2.04297 23983 ft 361 kts 247°
2026-05-07 12:50 40.50963 -2.07371 23523 ft 359 kts 247°
2026-05-07 12:50 40.50082 -2.10444 23063 ft 357 kts 247°
2026-05-07 12:51 40.49202 -2.13484 22602 ft 356 kts 247°
2026-05-07 12:51 40.48320 -2.16513 22141 ft 354 kts 247°
2026-05-07 12:51 40.47441 -2.19523 21681 ft 352 kts 247°
2026-05-07 12:51 40.46572 -2.22496 21490 ft 343 kts 247°
2026-05-07 12:52 40.45746 -2.25336 21415 ft 331 kts 247°
2026-05-07 12:52 40.44998 -2.28145 21327 ft 323 kts 255°
2026-05-07 12:52 40.44922 -2.31050 21250 ft 318 kts 275°
2026-05-07 12:52 40.45564 -2.33834 20897 ft 322 kts 290°
2026-05-07 12:53 40.46534 -2.36500 20522 ft 325 kts 294°
2026-05-07 12:53 40.47616 -2.39111 20156 ft 325 kts 296°
2026-05-07 12:53 40.48721 -2.41698 19802 ft 325 kts 296°
2026-05-07 12:53 40.49825 -2.44283 19443 ft 324 kts 296°
2026-05-07 12:54 40.50945 -2.46854 19086 ft 323 kts 296°
2026-05-07 12:54 40.52055 -2.49420 18738 ft 322 kts 296°
2026-05-07 12:54 40.53149 -2.51977 18389 ft 321 kts 296°
2026-05-07 12:54 40.54240 -2.54545 18038 ft 320 kts 296°
2026-05-07 12:55 40.55320 -2.57099 17690 ft 320 kts 296°
2026-05-07 12:55 40.56397 -2.59654 17344 ft 319 kts 296°
2026-05-07 12:55 40.57465 -2.62193 16999 ft 318 kts 296°
2026-05-07 12:55 40.58533 -2.64735 16653 ft 317 kts 296°
2026-05-07 12:56 40.59596 -2.67269 16309 ft 315 kts 296°
2026-05-07 12:56 40.60653 -2.69790 15966 ft 314 kts 296°
2026-05-07 12:56 40.61706 -2.72300 15694 ft 311 kts 296°
2026-05-07 12:56 40.62735 -2.74755 15610 ft 301 kts 296°
2026-05-07 12:57 40.63731 -2.77129 15531 ft 291 kts 296°
2026-05-07 12:57 40.64694 -2.79424 15423 ft 283 kts 295°
2026-05-07 12:57 40.65654 -2.81720 14885 ft 291 kts 295°
2026-05-07 12:57 40.66692 -2.84094 14211 ft 305 kts 298°
2026-05-07 12:58 40.67810 -2.86493 13782 ft 308 kts 299°
2026-05-07 12:58 40.68925 -2.88847 13467 ft 306 kts 299°
2026-05-07 12:58 40.70052 -2.91217 13144 ft 304 kts 299°
2026-05-07 12:58 40.71164 -2.93589 12818 ft 303 kts 298°
2026-05-07 12:59 40.72260 -2.95951 12499 ft 301 kts 298°
2026-05-07 12:59 40.73347 -2.98306 12175 ft 300 kts 298°
2026-05-07 12:59 40.74428 -3.00658 11845 ft 299 kts 298°
2026-05-07 12:59 40.75502 -3.03002 11504 ft 298 kts 298°
2026-05-07 13:00 40.76569 -3.05333 11274 ft 294 kts 298°
2026-05-07 13:00 40.77603 -3.07596 11202 ft 283 kts 298°
2026-05-07 13:00 40.78604 -3.09789 11133 ft 273 kts 298°
2026-05-07 13:00 40.79490 -3.11729 11049 ft 265 kts 298°
2026-05-07 13:01 40.80431 -3.13793 10841 ft 261 kts 298°
2026-05-07 13:01 40.81365 -3.15841 10572 ft 260 kts 298°
2026-05-07 13:01 40.82296 -3.17884 10295 ft 259 kts 298°
2026-05-07 13:01 40.83232 -3.19935 10045 ft 263 kts 298°
2026-05-07 13:02 40.84168 -3.21985 9798 ft 262 kts 298°
2026-05-07 13:02 40.85103 -3.24040 9548 ft 261 kts 298°
2026-05-07 13:02 40.86048 -3.26103 9422 ft 259 kts 299°
2026-05-07 13:02 40.86975 -3.28125 9377 ft 258 kts 299°
2026-05-07 13:03 40.87893 -3.30135 9085 ft 261 kts 299°
2026-05-07 13:03 40.88832 -3.32196 8787 ft 261 kts 299°
2026-05-07 13:03 40.89770 -3.34252 8496 ft 261 kts 299°
2026-05-07 13:03 40.90705 -3.36309 8207 ft 261 kts 299°
2026-05-07 13:04 40.91497 -3.38444 7998 ft 257 kts 288°
2026-05-07 13:04 40.91992 -3.40725 7697 ft 257 kts 281°
2026-05-07 13:04 40.92341 -3.43031 7432 ft 255 kts 278°
2026-05-07 13:04 40.92497 -3.45346 7171 ft 252 kts 267°
2026-05-07 13:05 40.92338 -3.47636 6921 ft 248 kts 260°
2026-05-07 13:05 40.91994 -3.49854 6668 ft 244 kts 249°
2026-05-07 13:05 40.91111 -3.51705 6481 ft 235 kts 223°
2026-05-07 13:05 40.89804 -3.52947 6316 ft 228 kts 209°
2026-05-07 13:06 40.88405 -3.53844 6175 ft 220 kts 202°
2026-05-07 13:06 40.87011 -3.54515 6044 ft 207 kts 196°
2026-05-07 13:06 40.85640 -3.54890 5964 ft 198 kts 189°
2026-05-07 13:06 40.84289 -3.55167 5913 ft 196 kts 189°
2026-05-07 13:07 40.82949 -3.55454 5869 ft 195 kts 189°
2026-05-07 13:07 40.81605 -3.55741 5828 ft 197 kts 189°
2026-05-07 13:07 40.80232 -3.55926 5785 ft 199 kts 184°
2026-05-07 13:07 40.78867 -3.55993 5743 ft 199 kts 181°
2026-05-07 13:08 40.77464 -3.56019 5699 ft 199 kts 181°
2026-05-07 13:08 40.76079 -3.56030 5656 ft 199 kts 180°
2026-05-07 13:08 40.74694 -3.56033 5613 ft 199 kts 180°
2026-05-07 13:08 40.73314 -3.56031 5570 ft 199 kts 180°
2026-05-07 13:09 40.71925 -3.56026 5523 ft 199 kts 180°
2026-05-07 13:09 40.70551 -3.56020 5446 ft 198 kts 180°
2026-05-07 13:09 40.69176 -3.56013 5221 ft 197 kts 180°
2026-05-07 13:09 40.67832 -3.56007 4953 ft 195 kts 180°
2026-05-07 13:10 40.66925 -3.56002 4774 ft 193 kts 180°
2026-05-07 13:10 40.65180 -3.55993 4435 ft 190 kts 180°
2026-05-07 13:10 40.64284 -3.55988 4258 ft 183 kts 180°
2026-05-07 13:10 40.63056 -3.55981 4013 ft 172 kts 180°
2026-05-07 13:11 40.61899 -3.55975 3805 ft 162 kts 180°
2026-05-07 13:11 40.60439 -3.55968 3513 ft 156 kts 180°
2026-05-07 13:11 40.59710 -3.55964 3372 ft 154 kts 180°
2026-05-07 13:11 40.58309 -3.55955 3099 ft 151 kts 179°
2026-05-07 13:12 40.57596 -3.55958 2967 ft 152 kts 179°
2026-05-07 13:12 40.56532 -3.55973 2794 ft 153 kts 178°
2026-05-07 13:12 40.55465 -3.55960 2602 ft 154 kts 176°
2026-05-07 13:12 40.54390 -3.55932 2363 ft 154 kts 178°
2026-05-07 13:13 40.53332 -3.55928 2154 ft 153 kts 176°
2026-05-07 13:13 40.52278 -3.55920 2011 ft 148 kts 177°
2026-05-07 13:13 40.51370 -3.55918 2009 ft 101 kts 179°
2026-05-07 13:13 40.50890 -3.55918 2008 ft 59 kts 179°
2026-05-07 13:14 40.50550 -3.55930 2008 ft 37 kts 192°
2026-05-07 13:14 40.50388 -3.56012 2008 ft 23 kts 207°
2026-05-07 13:14 40.50293 -3.56085 2008 ft 14 kts 210°
2026-05-07 13:14 40.50224 -3.56135 2008 ft 8 kts 213°
2026-05-07 13:15 40.50202 -3.56203 2008 ft 8 kts 265°
2026-05-07 13:15 40.50164 -3.56257 2008 ft 11 kts 186°
2026-05-07 13:15 40.50055 -3.56256 2008 ft 20 kts 179°
2026-05-07 13:15 40.49920 -3.56249 2008 ft 19 kts 176°
2026-05-07 13:16 40.49775 -3.56246 2008 ft 24 kts 179°
2026-05-07 13:16 40.49611 -3.56246 2008 ft 23 kts 179°
2026-05-07 13:16 40.49458 -3.56244 2008 ft 22 kts 180°
2026-05-07 13:16 40.49305 -3.56244 2008 ft 22 kts 179°
2026-05-07 13:17 40.49155 -3.56243 2008 ft 21 kts 179°
2026-05-07 13:17 40.49012 -3.56241 2008 ft 20 kts 180°
2026-05-07 13:17 40.48889 -3.56241 2008 ft 11 kts 189°
2026-05-07 13:17 40.48862 -3.56326 2008 ft 15 kts 269°
2026-05-07 13:18 40.48862 -3.56536 2008 ft 30 kts 269°
2026-05-07 13:18 40.48861 -3.56790 2008 ft 26 kts 270°
2026-05-07 13:18 40.48861 -3.57016 2008 ft 23 kts 270°
2026-05-07 13:18 40.48860 -3.57224 2008 ft 22 kts 270°
2026-05-07 13:19 40.48859 -3.57423 2008 ft 21 kts 269°
2026-05-07 13:19 40.48858 -3.57613 2008 ft 20 kts 269°
2026-05-07 13:19 40.48858 -3.57794 2008 ft 19 kts 270°
2026-05-07 13:19 40.48858 -3.57966 2008 ft 17 kts 269°
2026-05-07 13:20 40.48817 -3.58054 2008 ft 12 kts 183°
2026-05-07 13:20 40.48704 -3.58054 2008 ft 19 kts 179°
2026-05-07 13:20 40.48574 -3.58036 2008 ft 18 kts 151°
2026-05-07 13:20 40.48459 -3.57941 2008 ft 22 kts 148°
2026-05-07 13:21 40.48312 -3.57813 2008 ft 27 kts 141°
2026-05-07 13:21 40.48173 -3.57670 2008 ft 24 kts 142°
2026-05-07 13:21 40.48045 -3.57540 2008 ft 23 kts 141°
2026-05-07 13:21 40.47920 -3.57413 2008 ft 24 kts 142°
2026-05-07 13:22 40.47791 -3.57281 2008 ft 23 kts 142°
2026-05-07 13:22 40.47669 -3.57157 2008 ft 22 kts 142°
2026-05-07 13:22 40.47556 -3.57042 2008 ft 18 kts 143°
2026-05-07 13:22 40.47469 -3.56954 2008 ft 14 kts 142°
2026-05-07 13:23 40.47403 -3.56886 2008 ft 11 kts 142°
2026-05-07 13:23 40.47356 -3.56851 2008 ft 9 kts 179°
2026-05-07 13:23 40.47299 -3.56897 2008 ft 10 kts 214°
2026-05-07 13:23 40.47243 -3.56930 2008 ft 6 kts 227°
2026-05-07 13:24 40.47234 -3.56987 2008 ft 6 kts 263°
2026-05-07 13:24 40.47232 -3.57018 2008 ft 0 kts 264°